User: anonymous   Login
Location: Camp Creek
(33.9000°N, 111.8167°W)
Time: 13:36:26
(UTC-07:00)
Language:

Cosmos 1656 - Orbit

View from above orbital plane
View from above orbital plane
View from above satellite
View from above satellite

Ground track
Ground track

The orbit data is extracted from the following two-line orbital elements,

1 15755U 85042A   18142.91560426 -.00000083 +00000-0 -16444-4 0  9997
2 15755 071.1125 007.4634 0037328 245.0083 114.7164 14.20423123708664
Epoch (UTC): 22 May 2018 21:58:28
Eccentricity: 0.0037328
inclination: 71.1125°
perigee height: 797 km
apogee height: 851 km
right ascension of ascending node: 7.4634°
argument of perigee: 245.0083°
revolutions per day: 14.20423123
mean anomaly at epoch: 114.7164°
orbit number at epoch: 70866

The dashed part of the orbit path shows where the satellite is in the earth's shadow,  

DLR